Location: Amherst
(42.5000°N, 72.5000°W)
Time: 06:04:48
(UTC-04:00)

ISS - Pass Details

Date: 21 July 2018
Orbit: 402 x 408 km, 51.6° (Epoch: 17 July)

Event Time Altitude Azimuth Distance (km) Brightness Sun altitude
Rises 01:34:27 0° 303° (WNW) 2,328 0.3 -26.4°
Reaches altitude 10° 01:36:59 10° 323° (NW) 1,468 -0.5 -26.3°
Maximum altitude 01:39:23 19° 10° (N) 1,060 -0.9 -26.3°
Drops below altitude 10° 01:41:47 10° 57° (ENE) 1,468 -0.5 -26.2°
Sets 01:44:18 0° 77° (ENE) 2,328 0.4 -26.1°
